Location: Dampvalley
(47.9094°N, 6.1967°E)
Time: 18:16:43
(UTC+00:00)

IDEFIX/ARIANE 42P - Pass Details

Date: 05 March 2021
Orbit: 784 x 803 km, 98.4° (Epoch: 15 April)

Event Time Altitude Azimuth Distance (km) Brightness Sun altitude
Rises 04:08:25 0° 2° (N) 3,305 6.0 -20.8°
Reaches altitude 10° 04:11:26 10° 344° (NNW) 2,367 5.0 -20.3°
Enters shadow 04:14:04 18° 314° (NW) 1,886 4.2 -19.8°
